Year,Month,Day,Hour,Minute,Value (Times are PST for temperature in C)
2010,11,19,00,00,2.70
2010,11,19,00,01,2.70
2010,11,19,00,02,2.70
2010,11,19,00,03,2.70
2010,11,19,00,04,2.70
2010,11,19,00,05,2.70
2010,11,19,00,06,2.70
2010,11,19,00,07,2.70
2010,11,19,00,08,2.70
2010,11,19,00,09,2.70
2010,11,19,00,10,2.70
2010,11,19,00,11,2.70
2010,11,19,00,12,2.70
2010,11,19,00,13,2.70
2010,11,19,00,14,2.70
2010,11,19,00,15,2.70
2010,11,19,00,16,2.70
2010,11,19,00,17,2.70
2010,11,19,00,18,2.70
2010,11,19,00,19,2.70
2010,11,19,00,20,2.70
2010,11,19,00,21,2.70
2010,11,19,00,22,2.70
2010,11,19,00,23,2.70
2010,11,19,00,24,2.70
2010,11,19,00,25,2.70
2010,11,19,00,26,2.70
2010,11,19,00,27,2.70
2010,11,19,00,28,2.70
2010,11,19,00,29,2.70
2010,11,19,00,30,2.70
2010,11,19,00,31,2.70
2010,11,19,00,32,2.70
2010,11,19,00,33,2.70
2010,11,19,00,34,2.70
2010,11,19,00,35,2.70
2010,11,19,00,36,2.70
2010,11,19,00,37,2.70
2010,11,19,00,38,2.70
2010,11,19,00,39,2.70
2010,11,19,00,40,2.70
2010,11,19,00,41,2.70
2010,11,19,00,42,2.70
2010,11,19,00,43,2.70
2010,11,19,00,44,2.70
2010,11,19,00,45,2.70
2010,11,19,00,46,2.70
2010,11,19,00,47,2.70
2010,11,19,00,48,2.70
2010,11,19,00,49,2.70
2010,11,19,00,50,2.70
2010,11,19,00,51,2.70
2010,11,19,00,52,2.70
2010,11,19,00,53,2.70
2010,11,19,00,54,2.70
2010,11,19,00,55,2.70
2010,11,19,00,56,2.70
2010,11,19,00,57,2.70
2010,11,19,00,58,2.70
2010,11,19,00,59,2.70
2010,11,19,01,00,2.60
2010,11,19,01,01,2.60
2010,11,19,01,02,2.60
2010,11,19,01,03,2.60
2010,11,19,01,04,2.60
2010,11,19,01,05,2.60
2010,11,19,01,06,2.60
2010,11,19,01,07,2.60
2010,11,19,01,08,2.60
2010,11,19,01,09,2.60
2010,11,19,01,10,2.60
2010,11,19,01,11,2.60
2010,11,19,01,12,2.60
2010,11,19,01,13,2.70
2010,11,19,01,14,2.70
2010,11,19,01,15,2.70
2010,11,19,01,16,2.70
2010,11,19,01,17,2.70
2010,11,19,01,18,2.70
2010,11,19,01,19,2.70
2010,11,19,01,20,2.70
2010,11,19,01,21,2.70
2010,11,19,01,22,2.70
2010,11,19,01,23,2.70
2010,11,19,01,24,2.70
2010,11,19,01,25,2.70
2010,11,19,01,26,2.70
2010,11,19,01,27,2.70
2010,11,19,01,28,2.70
2010,11,19,01,29,2.70
2010,11,19,01,30,2.70
2010,11,19,01,31,2.70
2010,11,19,01,32,2.70
2010,11,19,01,33,2.70
2010,11,19,01,34,2.70
2010,11,19,01,35,2.70
2010,11,19,01,36,2.70
2010,11,19,01,37,2.70
2010,11,19,01,38,2.70
2010,11,19,01,39,2.70
2010,11,19,01,40,2.70
2010,11,19,01,41,2.70
2010,11,19,01,42,2.70
2010,11,19,01,43,2.70
2010,11,19,01,44,2.70
2010,11,19,01,45,2.70
2010,11,19,01,46,2.70
2010,11,19,01,47,2.70
2010,11,19,01,48,2.70
2010,11,19,01,49,2.70
2010,11,19,01,50,2.80
2010,11,19,01,51,2.80
2010,11,19,01,52,2.80
2010,11,19,01,53,2.80
2010,11,19,01,54,2.80
2010,11,19,01,55,2.80
2010,11,19,01,56,2.80
2010,11,19,01,57,2.80
2010,11,19,01,58,2.80
2010,11,19,01,59,2.80
2010,11,19,02,00,2.80
2010,11,19,02,01,2.80
2010,11,19,02,02,2.80
2010,11,19,02,03,2.80
2010,11,19,02,04,2.80
2010,11,19,02,05,2.80
2010,11,19,02,06,2.80
2010,11,19,02,07,2.80
2010,11,19,02,08,2.80
2010,11,19,02,09,2.80
2010,11,19,02,10,2.80
2010,11,19,02,11,2.80
2010,11,19,02,12,2.80
2010,11,19,02,13,2.80
2010,11,19,02,14,2.80
2010,11,19,02,15,2.80
2010,11,19,02,16,2.80
2010,11,19,02,17,2.80
2010,11,19,02,18,2.80
2010,11,19,02,19,2.80
2010,11,19,02,20,2.80
2010,11,19,02,21,2.80
2010,11,19,02,22,2.80
2010,11,19,02,23,2.80
2010,11,19,02,24,2.80
2010,11,19,02,25,2.80
2010,11,19,02,26,2.80
2010,11,19,02,27,2.80
2010,11,19,02,28,2.80
2010,11,19,02,29,2.80
2010,11,19,02,30,2.80
2010,11,19,02,31,2.80
2010,11,19,02,32,2.80
2010,11,19,02,33,2.80
2010,11,19,02,34,2.80
2010,11,19,02,35,2.80
2010,11,19,02,36,2.80
2010,11,19,02,37,2.80
2010,11,19,02,38,2.80
2010,11,19,02,39,2.80
2010,11,19,02,40,2.80
2010,11,19,02,41,2.80
2010,11,19,02,42,2.80
2010,11,19,02,43,2.80
2010,11,19,02,44,2.90
2010,11,19,02,45,2.80
2010,11,19,02,46,2.80
2010,11,19,02,47,2.90
2010,11,19,02,48,2.80
2010,11,19,02,49,2.80
2010,11,19,02,50,2.80
2010,11,19,02,51,2.80
2010,11,19,02,52,2.80
2010,11,19,02,53,2.80
2010,11,19,02,54,2.90
2010,11,19,02,55,2.90
2010,11,19,02,56,2.90
2010,11,19,02,57,2.90
2010,11,19,02,58,2.90
2010,11,19,02,59,2.90
2010,11,19,03,00,2.90
2010,11,19,03,01,2.90
2010,11,19,03,02,2.90
2010,11,19,03,03,2.90
2010,11,19,03,04,2.90
2010,11,19,03,05,2.90
2010,11,19,03,06,2.90
2010,11,19,03,07,2.90
2010,11,19,03,08,2.90
2010,11,19,03,09,2.90
2010,11,19,03,10,2.90
2010,11,19,03,11,2.90
2010,11,19,03,12,2.90
2010,11,19,03,13,2.90
2010,11,19,03,14,2.90
2010,11,19,03,15,2.90
2010,11,19,03,16,2.90
2010,11,19,03,17,2.90
2010,11,19,03,18,2.90
2010,11,19,03,19,2.90
2010,11,19,03,20,2.90
2010,11,19,03,21,2.90
2010,11,19,03,22,2.90
2010,11,19,03,23,2.90
2010,11,19,03,24,2.90
2010,11,19,03,25,2.90
2010,11,19,03,26,2.80
2010,11,19,03,27,2.80
2010,11,19,03,28,2.80
2010,11,19,03,29,2.80
2010,11,19,03,30,2.80
2010,11,19,03,31,2.80
2010,11,19,03,32,2.80
2010,11,19,03,33,2.80
2010,11,19,03,34,2.80
2010,11,19,03,35,2.80
2010,11,19,03,36,2.80
2010,11,19,03,37,2.80
2010,11,19,03,38,2.80
2010,11,19,03,39,2.80
2010,11,19,03,40,2.80
2010,11,19,03,41,2.80
2010,11,19,03,42,2.80
2010,11,19,03,43,2.80
2010,11,19,03,44,2.80
2010,11,19,03,45,2.80
2010,11,19,03,46,2.80
2010,11,19,03,47,2.80
2010,11,19,03,48,2.80
2010,11,19,03,49,2.80
2010,11,19,03,50,2.80
2010,11,19,03,51,2.80
2010,11,19,03,52,2.80
2010,11,19,03,53,2.80
2010,11,19,03,54,2.80
2010,11,19,03,55,2.80
2010,11,19,03,56,2.80
2010,11,19,03,57,2.80
2010,11,19,03,58,2.80
2010,11,19,03,59,2.80
2010,11,19,04,00,2.80
2010,11,19,04,01,2.80
2010,11,19,04,02,2.80
2010,11,19,04,03,2.80
2010,11,19,04,04,2.80
2010,11,19,04,05,2.80
2010,11,19,04,06,2.80
2010,11,19,04,07,2.80
2010,11,19,04,08,2.80
2010,11,19,04,09,2.80
2010,11,19,04,10,2.80
2010,11,19,04,11,2.80
2010,11,19,04,12,2.80
2010,11,19,04,13,2.80
2010,11,19,04,14,2.80
2010,11,19,04,15,2.80
2010,11,19,04,16,2.80
2010,11,19,04,17,2.80
2010,11,19,04,18,2.70
2010,11,19,04,19,2.70
2010,11,19,04,20,2.70
2010,11,19,04,21,2.70
2010,11,19,04,22,2.70
2010,11,19,04,23,2.70
2010,11,19,04,24,2.70
2010,11,19,04,25,2.70
2010,11,19,04,26,2.70
2010,11,19,04,27,2.70
2010,11,19,04,28,2.70
2010,11,19,04,29,2.70
2010,11,19,04,30,2.70
2010,11,19,04,31,2.70
2010,11,19,04,32,2.70
2010,11,19,04,33,2.70
2010,11,19,04,34,2.70
2010,11,19,04,35,2.70
2010,11,19,04,36,2.70
2010,11,19,04,37,2.70
2010,11,19,04,38,2.70
2010,11,19,04,39,2.70
2010,11,19,04,40,2.70
2010,11,19,04,41,2.70
2010,11,19,04,42,2.70
2010,11,19,04,43,2.70
2010,11,19,04,44,2.70
2010,11,19,04,45,2.70
2010,11,19,04,46,2.70
2010,11,19,04,47,2.70
2010,11,19,04,48,2.70
2010,11,19,04,49,2.70
2010,11,19,04,50,2.70
2010,11,19,04,51,2.70
2010,11,19,04,52,2.70
2010,11,19,04,53,2.70
2010,11,19,04,54,2.70
2010,11,19,04,55,2.70
2010,11,19,04,56,2.70
2010,11,19,04,57,2.70
2010,11,19,04,58,2.70
2010,11,19,04,59,2.70
2010,11,19,05,00,2.70
2010,11,19,05,01,2.70
2010,11,19,05,02,2.60
2010,11,19,05,03,2.60
2010,11,19,05,04,2.60
2010,11,19,05,05,2.60
2010,11,19,05,06,2.60
2010,11,19,05,07,2.60
2010,11,19,05,08,2.60
2010,11,19,05,09,2.60
2010,11,19,05,10,2.60
2010,11,19,05,11,2.60
2010,11,19,05,12,2.60
2010,11,19,05,13,2.60
2010,11,19,05,14,2.60
2010,11,19,05,15,2.60
2010,11,19,05,16,2.60
2010,11,19,05,17,2.70
2010,11,19,05,18,2.60
2010,11,19,05,19,2.70
2010,11,19,05,20,2.70
2010,11,19,05,21,2.70
2010,11,19,05,22,2.70
2010,11,19,05,23,2.70
2010,11,19,05,24,2.70
2010,11,19,05,25,2.70
2010,11,19,05,26,2.70
2010,11,19,05,27,2.70
2010,11,19,05,28,2.70
2010,11,19,05,29,2.70
2010,11,19,05,30,2.70
2010,11,19,05,31,2.70
2010,11,19,05,32,2.70
2010,11,19,05,33,2.70
2010,11,19,05,34,2.70
2010,11,19,05,35,2.70
2010,11,19,05,36,2.70
2010,11,19,05,37,2.70
2010,11,19,05,38,2.70
2010,11,19,05,39,2.70
2010,11,19,05,40,2.70
2010,11,19,05,41,2.70
2010,11,19,05,42,2.70
2010,11,19,05,43,2.70
2010,11,19,05,44,2.70
2010,11,19,05,45,2.70
2010,11,19,05,46,2.70
2010,11,19,05,47,2.70
2010,11,19,05,48,2.70
2010,11,19,05,49,2.70
2010,11,19,05,50,2.70
2010,11,19,05,51,2.70
2010,11,19,05,52,2.70
2010,11,19,05,53,2.70
2010,11,19,05,54,2.70
2010,11,19,05,55,2.70
2010,11,19,05,56,2.60
2010,11,19,05,57,2.70
2010,11,19,05,58,2.60
2010,11,19,05,59,2.60
2010,11,19,06,00,2.60
2010,11,19,06,01,2.60
2010,11,19,06,02,2.60
2010,11,19,06,03,2.60
2010,11,19,06,04,2.60
2010,11,19,06,05,2.60
2010,11,19,06,06,2.60
2010,11,19,06,07,2.60
2010,11,19,06,08,2.60
2010,11,19,06,09,2.60
2010,11,19,06,10,2.60
2010,11,19,06,11,2.60
2010,11,19,06,12,2.60
2010,11,19,06,13,2.60
2010,11,19,06,14,2.60
2010,11,19,06,15,2.60
2010,11,19,06,16,2.60
2010,11,19,06,17,2.60
2010,11,19,06,18,2.60
2010,11,19,06,19,2.60
2010,11,19,06,20,2.60
2010,11,19,06,21,2.60
2010,11,19,06,22,2.60
2010,11,19,06,23,2.60
2010,11,19,06,24,2.60
2010,11,19,06,25,2.60
2010,11,19,06,26,2.60
2010,11,19,06,27,2.60
2010,11,19,06,28,2.60
2010,11,19,06,29,2.60
2010,11,19,06,30,2.60
2010,11,19,06,31,2.60
2010,11,19,06,32,2.60
2010,11,19,06,33,2.60
2010,11,19,06,34,2.60
2010,11,19,06,35,2.60
2010,11,19,06,36,2.50
2010,11,19,06,37,2.60
2010,11,19,06,38,2.60
2010,11,19,06,39,2.50
2010,11,19,06,40,2.50
2010,11,19,06,41,2.60
2010,11,19,06,42,2.60
2010,11,19,06,43,2.50
2010,11,19,06,44,2.50
2010,11,19,06,45,2.60
2010,11,19,06,46,2.60
2010,11,19,06,47,2.60
2010,11,19,06,48,2.60
2010,11,19,06,49,2.60
2010,11,19,06,50,2.50
2010,11,19,06,51,2.60
2010,11,19,06,52,2.60
2010,11,19,06,53,2.50
2010,11,19,06,54,2.50
2010,11,19,06,55,2.50
2010,11,19,06,56,2.50
2010,11,19,06,57,2.50
2010,11,19,06,58,2.50
2010,11,19,06,59,2.50
2010,11,19,07,00,2.50
2010,11,19,07,01,2.50
2010,11,19,07,02,2.50
2010,11,19,07,03,2.50
2010,11,19,07,04,2.50
2010,11,19,07,05,2.60
2010,11,19,07,06,2.60
2010,11,19,07,07,2.60
2010,11,19,07,08,2.60
2010,11,19,07,09,2.60
2010,11,19,07,10,2.60
2010,11,19,07,11,2.50
2010,11,19,07,12,2.60
2010,11,19,07,13,2.60
2010,11,19,07,14,2.50
2010,11,19,07,15,2.50
2010,11,19,07,16,2.60
2010,11,19,07,17,2.50
2010,11,19,07,18,2.50
2010,11,19,07,19,2.50
2010,11,19,07,20,2.50
2010,11,19,07,21,2.50
2010,11,19,07,22,2.50
2010,11,19,07,23,2.50
2010,11,19,07,24,2.60
2010,11,19,07,25,2.50
2010,11,19,07,26,2.50
2010,11,19,07,27,2.50
2010,11,19,07,28,2.50
2010,11,19,07,29,2.50
2010,11,19,07,30,2.50
2010,11,19,07,31,2.50
2010,11,19,07,32,2.50
2010,11,19,07,33,2.60
2010,11,19,07,34,2.50
2010,11,19,07,35,2.50
2010,11,19,07,36,2.50
2010,11,19,07,37,2.60
2010,11,19,07,38,2.50
2010,11,19,07,39,2.50
2010,11,19,07,40,2.50
2010,11,19,07,41,2.50
2010,11,19,07,42,2.50
2010,11,19,07,43,2.50
2010,11,19,07,44,2.50
2010,11,19,07,45,2.50
2010,11,19,07,46,2.50
2010,11,19,07,47,2.50
2010,11,19,07,48,2.50
2010,11,19,07,49,2.50
2010,11,19,07,50,2.50
2010,11,19,07,51,2.50
2010,11,19,07,52,2.50
2010,11,19,07,53,2.50
2010,11,19,07,54,2.50
2010,11,19,07,55,2.50
2010,11,19,07,56,2.50
2010,11,19,07,57,2.50
2010,11,19,07,58,2.40
2010,11,19,07,59,2.40
2010,11,19,08,00,2.40
2010,11,19,08,01,2.40
2010,11,19,08,02,2.40
2010,11,19,08,03,2.40
2010,11,19,08,04,2.40
2010,11,19,08,05,2.40
2010,11,19,08,06,2.40
2010,11,19,08,07,2.40
2010,11,19,08,08,2.40
2010,11,19,08,09,2.40
2010,11,19,08,10,2.40
2010,11,19,08,11,2.40
2010,11,19,08,12,2.40
2010,11,19,08,13,2.40
2010,11,19,08,14,2.40
2010,11,19,08,15,2.40
2010,11,19,08,16,2.30
2010,11,19,08,17,2.30
2010,11,19,08,18,2.30
2010,11,19,08,19,2.30
2010,11,19,08,20,2.30
2010,11,19,08,21,2.30
2010,11,19,08,22,2.30
2010,11,19,08,23,2.30
2010,11,19,08,24,2.30
2010,11,19,08,25,2.30
2010,11,19,08,26,2.40
2010,11,19,08,27,2.40
2010,11,19,08,28,2.40
2010,11,19,08,29,2.40
2010,11,19,08,30,2.40
2010,11,19,08,31,2.40
2010,11,19,08,32,2.40
2010,11,19,08,33,2.40
2010,11,19,08,34,2.40
2010,11,19,08,35,2.40
2010,11,19,08,36,2.40
2010,11,19,08,37,2.40
2010,11,19,08,38,2.40
2010,11,19,08,39,2.40
2010,11,19,08,40,2.40
2010,11,19,08,41,2.40
2010,11,19,08,42,2.40
2010,11,19,08,43,2.40
2010,11,19,08,44,2.40
2010,11,19,08,45,2.40
2010,11,19,08,46,2.40
2010,11,19,08,47,2.40
2010,11,19,08,48,2.40
2010,11,19,08,49,2.40
2010,11,19,08,50,2.40
2010,11,19,08,51,2.40
2010,11,19,08,52,2.40
2010,11,19,08,53,2.30
2010,11,19,08,54,2.30
2010,11,19,08,55,2.30
2010,11,19,08,56,2.30
2010,11,19,08,57,2.30
2010,11,19,08,58,2.30
2010,11,19,08,59,2.30
2010,11,19,09,00,2.30
2010,11,19,09,01,2.30
2010,11,19,09,02,2.30
2010,11,19,09,03,2.30
2010,11,19,09,04,2.30
2010,11,19,09,05,2.40
2010,11,19,09,06,2.40
2010,11,19,09,07,2.40
2010,11,19,09,08,2.40
2010,11,19,09,09,2.40
2010,11,19,09,10,2.30
2010,11,19,09,11,2.30
2010,11,19,09,12,2.30
2010,11,19,09,13,2.30
2010,11,19,09,14,2.30
2010,11,19,09,15,2.30
2010,11,19,09,16,2.30
2010,11,19,09,17,2.40
2010,11,19,09,18,2.40
2010,11,19,09,19,2.40
2010,11,19,09,20,2.40
2010,11,19,09,21,2.40
2010,11,19,09,22,2.40
2010,11,19,09,23,2.40
2010,11,19,09,24,2.40
2010,11,19,09,25,2.40
2010,11,19,09,26,2.40
2010,11,19,09,27,2.40
2010,11,19,09,28,2.40
2010,11,19,09,29,2.40
2010,11,19,09,30,2.40
2010,11,19,09,31,2.40
2010,11,19,09,32,2.40
2010,11,19,09,33,2.40
2010,11,19,09,34,2.40
2010,11,19,09,35,2.40
2010,11,19,09,36,2.40
2010,11,19,09,37,2.40
2010,11,19,09,38,2.40
2010,11,19,09,39,2.40
2010,11,19,09,40,2.40
2010,11,19,09,41,2.40
2010,11,19,09,42,2.40
2010,11,19,09,43,2.40
2010,11,19,09,44,2.40
2010,11,19,09,45,2.40
2010,11,19,09,46,2.40
2010,11,19,09,47,2.40
2010,11,19,09,48,2.40
2010,11,19,09,49,2.40
2010,11,19,09,50,2.40
2010,11,19,09,51,2.40
2010,11,19,09,52,2.40
2010,11,19,09,53,2.40
2010,11,19,09,54,2.40
2010,11,19,09,55,2.50
2010,11,19,09,56,2.50
2010,11,19,09,57,2.50
2010,11,19,09,58,2.50
2010,11,19,09,59,2.50
2010,11,19,10,00,2.50
2010,11,19,10,01,2.60
2010,11,19,10,02,2.60
2010,11,19,10,03,2.60
2010,11,19,10,04,2.60
2010,11,19,10,05,2.60
2010,11,19,10,06,2.60
2010,11,19,10,07,2.60
2010,11,19,10,08,2.60
2010,11,19,10,09,2.60
2010,11,19,10,10,2.70
2010,11,19,10,11,2.70
2010,11,19,10,12,2.70
2010,11,19,10,13,2.70
2010,11,19,10,14,2.70
2010,11,19,10,15,2.70
2010,11,19,10,16,2.70
2010,11,19,10,17,2.70
2010,11,19,10,18,2.70
2010,11,19,10,19,2.70
2010,11,19,10,20,2.70
2010,11,19,10,21,2.80
2010,11,19,10,22,2.80
2010,11,19,10,23,2.80
2010,11,19,10,24,2.80
2010,11,19,10,25,2.80
2010,11,19,10,26,2.80
2010,11,19,10,27,2.80
2010,11,19,10,28,2.80
2010,11,19,10,29,2.80
2010,11,19,10,30,2.80
2010,11,19,10,31,2.80
2010,11,19,10,32,2.90
2010,11,19,10,33,2.90
2010,11,19,10,34,2.90
2010,11,19,10,35,2.90
2010,11,19,10,36,2.90
2010,11,19,10,37,2.90
2010,11,19,10,38,2.90
2010,11,19,10,39,2.90
2010,11,19,10,40,2.90
2010,11,19,10,41,2.90
2010,11,19,10,42,2.90
2010,11,19,10,43,2.90
2010,11,19,10,44,2.90
2010,11,19,10,45,2.90
2010,11,19,10,46,3.00
2010,11,19,10,47,3.00
2010,11,19,10,48,3.00
2010,11,19,10,49,3.00
2010,11,19,10,50,3.00
2010,11,19,10,51,3.00
2010,11,19,10,52,3.00
2010,11,19,10,53,3.10
2010,11,19,10,54,3.10
2010,11,19,10,55,3.10
2010,11,19,10,56,3.10
2010,11,19,10,57,3.10
2010,11,19,10,58,3.10
2010,11,19,10,59,3.10
2010,11,19,11,00,3.10
2010,11,19,11,01,3.10
2010,11,19,11,02,3.10
2010,11,19,11,03,3.10
2010,11,19,11,04,3.10
2010,11,19,11,05,3.10
2010,11,19,11,06,3.10
2010,11,19,11,07,3.10
2010,11,19,11,08,3.10
2010,11,19,11,09,3.10
2010,11,19,11,10,3.10
2010,11,19,11,11,3.10
2010,11,19,11,12,3.10
2010,11,19,11,13,3.10
2010,11,19,11,14,3.10
2010,11,19,11,15,3.10
2010,11,19,11,16,3.10
2010,11,19,11,17,3.00
2010,11,19,11,18,3.00
2010,11,19,11,19,3.00
2010,11,19,11,20,3.00
2010,11,19,11,21,3.00
2010,11,19,11,22,3.00
2010,11,19,11,23,3.00
2010,11,19,11,24,3.00
2010,11,19,11,25,2.90
2010,11,19,11,26,2.90
2010,11,19,11,27,2.90
2010,11,19,11,28,2.90
2010,11,19,11,29,2.90
2010,11,19,11,30,2.90
2010,11,19,11,31,2.90
2010,11,19,11,32,2.90
2010,11,19,11,33,2.90
2010,11,19,11,34,2.90
2010,11,19,11,35,2.90
2010,11,19,11,36,2.90
2010,11,19,11,37,2.90
2010,11,19,11,38,2.90
2010,11,19,11,39,2.90
2010,11,19,11,40,2.90
2010,11,19,11,41,2.90
2010,11,19,11,42,2.90
2010,11,19,11,43,2.90
2010,11,19,11,44,2.90
2010,11,19,11,45,2.90
2010,11,19,11,46,2.90
2010,11,19,11,47,2.90
2010,11,19,11,48,2.90
2010,11,19,11,49,2.90
2010,11,19,11,50,2.90
2010,11,19,11,51,2.90
2010,11,19,11,52,2.90
2010,11,19,11,53,2.90
2010,11,19,11,54,2.90
2010,11,19,11,55,2.90
2010,11,19,11,56,2.90
2010,11,19,11,57,2.80
2010,11,19,11,58,2.80
2010,11,19,11,59,2.80
2010,11,19,12,00,2.80
2010,11,19,12,01,2.80
2010,11,19,12,02,2.80
2010,11,19,12,03,2.80
2010,11,19,12,04,2.80
2010,11,19,12,05,2.80
2010,11,19,12,06,2.80
2010,11,19,12,07,2.80
2010,11,19,12,08,2.80
2010,11,19,12,09,2.80
2010,11,19,12,10,2.80
2010,11,19,12,11,2.80
2010,11,19,12,12,2.80
2010,11,19,12,13,2.80
2010,11,19,12,14,2.80
2010,11,19,12,15,2.80
2010,11,19,12,16,2.80
2010,11,19,12,17,2.80
2010,11,19,12,18,2.80
2010,11,19,12,19,2.80
2010,11,19,12,20,2.80
2010,11,19,12,21,2.80
2010,11,19,12,22,2.80
2010,11,19,12,23,2.80
2010,11,19,12,24,2.80
2010,11,19,12,25,2.80
2010,11,19,12,26,2.80
2010,11,19,12,27,2.80
2010,11,19,12,28,2.80
2010,11,19,12,29,2.80
2010,11,19,12,30,2.80
2010,11,19,12,31,2.70
2010,11,19,12,32,2.70
2010,11,19,12,33,2.70
2010,11,19,12,34,2.70
2010,11,19,12,35,2.70
2010,11,19,12,36,2.70
2010,11,19,12,37,2.70
2010,11,19,12,38,2.70
2010,11,19,12,39,2.60
2010,11,19,12,40,2.60
2010,11,19,12,41,2.60
2010,11,19,12,42,2.60
2010,11,19,12,43,2.60
2010,11,19,12,44,2.60
2010,11,19,12,45,2.60
2010,11,19,12,46,2.60
2010,11,19,12,47,2.60
2010,11,19,12,48,2.60
2010,11,19,12,49,2.60
2010,11,19,12,50,2.60
2010,11,19,12,51,2.60
2010,11,19,12,52,2.60
2010,11,19,12,53,2.60
2010,11,19,12,54,2.60
2010,11,19,12,55,2.60
2010,11,19,12,56,2.60
2010,11,19,12,57,2.60
2010,11,19,12,58,2.60
2010,11,19,12,59,2.60
2010,11,19,13,00,2.60
2010,11,19,13,01,2.60
2010,11,19,13,02,2.60
2010,11,19,13,03,2.60
2010,11,19,13,04,2.60
2010,11,19,13,05,2.60
2010,11,19,13,06,2.60
2010,11,19,13,07,2.60
2010,11,19,13,08,2.60
2010,11,19,13,09,2.60
2010,11,19,13,10,2.50
2010,11,19,13,11,2.50
2010,11,19,13,12,2.50
2010,11,19,13,13,2.50
2010,11,19,13,14,2.50
2010,11,19,13,15,2.50
2010,11,19,13,16,2.50
2010,11,19,13,17,2.50
2010,11,19,13,18,2.50
2010,11,19,13,19,2.50
2010,11,19,13,20,2.50
2010,11,19,13,21,2.50
2010,11,19,13,22,2.50
2010,11,19,13,23,2.50
2010,11,19,13,24,2.50
2010,11,19,13,25,2.50
2010,11,19,13,26,2.40
2010,11,19,13,27,2.40
2010,11,19,13,28,2.40
2010,11,19,13,29,2.40
2010,11,19,13,30,2.40
2010,11,19,13,31,2.40
2010,11,19,13,32,2.40
2010,11,19,13,33,2.40
2010,11,19,13,34,2.40
2010,11,19,13,35,2.40
2010,11,19,13,36,2.40
2010,11,19,13,37,2.40
2010,11,19,13,38,2.40
2010,11,19,13,39,2.30
2010,11,19,13,40,2.30
2010,11,19,13,41,2.20
2010,11,19,13,42,2.20
2010,11,19,13,43,2.20
2010,11,19,13,44,2.10
2010,11,19,13,45,2.10
2010,11,19,13,46,2.10
2010,11,19,13,47,2.10
2010,11,19,13,48,2.10
2010,11,19,13,49,2.10
2010,11,19,13,50,2.10
2010,11,19,13,51,2.10
2010,11,19,13,52,2.10
2010,11,19,13,53,2.00
2010,11,19,13,54,2.00
2010,11,19,13,55,2.00
2010,11,19,13,56,2.00
2010,11,19,13,57,2.00
2010,11,19,13,58,2.00
2010,11,19,13,59,2.00
2010,11,19,14,00,2.00
2010,11,19,14,01,2.00
2010,11,19,14,02,1.90
2010,11,19,14,03,1.90
2010,11,19,14,04,1.90
2010,11,19,14,05,1.90
2010,11,19,14,06,1.90
2010,11,19,14,07,1.90
2010,11,19,14,08,1.90
2010,11,19,14,09,1.90
2010,11,19,14,10,1.90
2010,11,19,14,11,1.90
2010,11,19,14,12,1.90
2010,11,19,14,13,1.90
2010,11,19,14,14,1.90
2010,11,19,14,15,1.90
2010,11,19,14,16,1.90
2010,11,19,14,17,1.90
2010,11,19,14,18,1.90
2010,11,19,14,19,1.90
2010,11,19,14,20,1.80
2010,11,19,14,21,1.80
2010,11,19,14,22,1.80
2010,11,19,14,23,1.80
2010,11,19,14,24,1.80
2010,11,19,14,25,1.80
2010,11,19,14,26,1.80
2010,11,19,14,27,1.80
2010,11,19,14,28,1.80
2010,11,19,14,29,1.80
2010,11,19,14,30,1.80
2010,11,19,14,31,1.80
2010,11,19,14,32,1.80
2010,11,19,14,33,1.80
2010,11,19,14,34,1.70
2010,11,19,14,35,1.70
2010,11,19,14,36,1.70
2010,11,19,14,37,1.60
2010,11,19,14,38,1.60
2010,11,19,14,39,1.60
2010,11,19,14,40,1.60
2010,11,19,14,41,1.60
2010,11,19,14,42,1.60
2010,11,19,14,43,1.50
2010,11,19,14,44,1.50
2010,11,19,14,45,1.50
2010,11,19,14,46,1.50
2010,11,19,14,47,1.50
2010,11,19,14,48,1.50
2010,11,19,14,49,1.50
2010,11,19,14,50,1.40
2010,11,19,14,51,1.40
2010,11,19,14,52,1.40
2010,11,19,14,53,1.30
2010,11,19,14,54,1.30
2010,11,19,14,55,1.30
2010,11,19,14,56,1.30
2010,11,19,14,57,1.30
2010,11,19,14,58,1.30
2010,11,19,14,59,1.30
2010,11,19,15,00,1.30
2010,11,19,15,01,1.30
2010,11,19,15,02,1.30
2010,11,19,15,03,1.30
2010,11,19,15,04,1.30
2010,11,19,15,05,1.20
2010,11,19,15,06,1.20
2010,11,19,15,07,1.20
2010,11,19,15,08,1.20
2010,11,19,15,09,1.20
2010,11,19,15,10,1.20
2010,11,19,15,11,1.20
2010,11,19,15,12,1.10
2010,11,19,15,13,1.10
2010,11,19,15,14,1.10
2010,11,19,15,15,1.10
2010,11,19,15,16,1.10
2010,11,19,15,17,1.10
2010,11,19,15,18,1.10
2010,11,19,15,19,1.10
2010,11,19,15,20,1.10
2010,11,19,15,21,1.00
2010,11,19,15,22,1.00
2010,11,19,15,23,1.00
2010,11,19,15,24,1.00
2010,11,19,15,25,1.00
2010,11,19,15,26,1.00
2010,11,19,15,27,0.90
2010,11,19,15,28,0.90
2010,11,19,15,29,0.90
2010,11,19,15,30,0.90
2010,11,19,15,31,0.90
2010,11,19,15,32,0.90
2010,11,19,15,33,0.90
2010,11,19,15,34,0.90
2010,11,19,15,35,0.80
2010,11,19,15,36,0.80
2010,11,19,15,37,0.80
2010,11,19,15,38,0.80
2010,11,19,15,39,0.80
2010,11,19,15,40,0.80
2010,11,19,15,41,0.80
2010,11,19,15,42,0.80
2010,11,19,15,43,0.80
2010,11,19,15,44,0.80
2010,11,19,15,45,0.80
2010,11,19,15,46,0.80
2010,11,19,15,47,0.80
2010,11,19,15,48,0.70
2010,11,19,15,49,0.70
2010,11,19,15,50,0.70
2010,11,19,15,51,0.70
2010,11,19,15,52,0.70
2010,11,19,15,53,0.70
2010,11,19,15,54,0.70
2010,11,19,15,55,0.70
2010,11,19,15,56,0.70
2010,11,19,15,57,0.70
2010,11,19,15,58,0.70
2010,11,19,15,59,0.70
2010,11,19,16,00,0.70
2010,11,19,16,01,0.60
2010,11,19,16,02,0.60
2010,11,19,16,03,0.60
2010,11,19,16,04,0.60
2010,11,19,16,05,0.60
2010,11,19,16,06,0.60
2010,11,19,16,07,0.60
2010,11,19,16,08,0.60
2010,11,19,16,09,0.60
2010,11,19,16,10,0.60
2010,11,19,16,11,0.60
2010,11,19,16,12,0.60
2010,11,19,16,13,0.50
2010,11,19,16,14,0.50
2010,11,19,16,15,0.50
2010,11,19,16,16,0.50
2010,11,19,16,17,0.50
2010,11,19,16,18,0.50
2010,11,19,16,19,0.50
2010,11,19,16,20,0.50
2010,11,19,16,21,0.50
2010,11,19,16,22,0.50
2010,11,19,16,23,0.50
2010,11,19,16,24,0.50
2010,11,19,16,25,0.50
2010,11,19,16,26,0.50
2010,11,19,16,27,0.50
2010,11,19,16,28,0.50
2010,11,19,16,29,0.40
2010,11,19,16,30,0.40
2010,11,19,16,31,0.40
2010,11,19,16,32,0.40
2010,11,19,16,33,0.40
2010,11,19,16,34,0.40
2010,11,19,16,35,0.40
2010,11,19,16,36,0.40
2010,11,19,16,37,0.40
2010,11,19,16,38,0.40
2010,11,19,16,39,0.40
2010,11,19,16,40,0.40
2010,11,19,16,41,0.40
2010,11,19,16,42,0.40
2010,11,19,16,43,0.40
2010,11,19,16,44,0.40
2010,11,19,16,45,0.40
2010,11,19,16,46,0.40
2010,11,19,16,47,0.40
2010,11,19,16,48,0.40
2010,11,19,16,49,0.40
2010,11,19,16,50,0.40
2010,11,19,16,51,0.40
2010,11,19,16,52,0.50
2010,11,19,16,53,0.40
2010,11,19,16,54,0.50
2010,11,19,16,55,0.50
2010,11,19,16,56,0.50
2010,11,19,16,57,0.50
2010,11,19,16,58,0.50
2010,11,19,16,59,0.50
2010,11,19,17,00,0.50
2010,11,19,17,01,0.50
2010,11,19,17,02,0.50
2010,11,19,17,03,0.50
2010,11,19,17,04,0.50
2010,11,19,17,05,0.50
2010,11,19,17,06,0.50
2010,11,19,17,07,0.50
2010,11,19,17,08,0.50
2010,11,19,17,09,0.50
2010,11,19,17,10,0.50
2010,11,19,17,11,0.50
2010,11,19,17,12,0.50
2010,11,19,17,13,0.50
2010,11,19,17,14,0.50
2010,11,19,17,15,0.50
2010,11,19,17,16,0.50
2010,11,19,17,17,0.50
2010,11,19,17,18,0.50
2010,11,19,17,19,0.50
2010,11,19,17,20,0.50
2010,11,19,17,21,0.50
2010,11,19,17,22,0.50
2010,11,19,17,23,0.50
2010,11,19,17,24,0.50
2010,11,19,17,25,0.50
2010,11,19,17,26,0.50
2010,11,19,17,27,0.50
2010,11,19,17,28,0.50
2010,11,19,17,29,0.50
2010,11,19,17,30,0.50
2010,11,19,17,31,0.50
2010,11,19,17,32,0.50
2010,11,19,17,33,0.50
2010,11,19,17,34,0.50
2010,11,19,17,35,0.50
2010,11,19,17,36,0.40
2010,11,19,17,37,0.40
2010,11,19,17,38,0.40
2010,11,19,17,39,0.40
2010,11,19,17,40,0.40
2010,11,19,17,41,0.40
2010,11,19,17,42,0.40
2010,11,19,17,43,0.40
2010,11,19,17,44,0.40
2010,11,19,17,45,0.40
2010,11,19,17,46,0.40
2010,11,19,17,47,0.40
2010,11,19,17,48,0.40
2010,11,19,17,49,0.40
2010,11,19,17,50,0.40
2010,11,19,17,51,0.40
2010,11,19,17,52,0.40
2010,11,19,17,53,0.40
2010,11,19,17,54,0.40
2010,11,19,17,55,0.40
2010,11,19,17,56,0.40
2010,11,19,17,57,0.40
2010,11,19,17,58,0.40
2010,11,19,17,59,0.40
2010,11,19,18,00,0.40
2010,11,19,18,01,0.40
2010,11,19,18,02,0.50
2010,11,19,18,03,0.50
2010,11,19,18,04,0.40
2010,11,19,18,05,0.40
2010,11,19,18,06,0.40